Change the Weather History Date:

Tuesday, October 1, 2013

  Actual Average Record
Temperature  
Mean Temperature 70 °F -  
Max Temperature 91 °F - - ()
Min Temperature 49 °F - - ()
Cooling Degree Days 5    
Growing Degree Days 20 (Base 50)    
Moisture  
Dew Point 51 °F    
Average Humidity 54    
Maximum Humidity 83    
Minimum Humidity 13    
Precipitation  
Precipitation 0.08 in - - ()
Sea Level Pressure  
Sea Level Pressure 29.77 in    
Wind  
Wind Speed 8 mph ()    
Max Wind Speed 33 mph    
Max Gust Speed 54 mph    
Visibility 7.4 miles    
Events Rain    
T = Trace of Precipitation, MM = Missing Value Source: Averaged Metar Reports

Daily Weather History Graph

Daily Weather History Graph

Search for Another Location

Airport or City:

Trip Planner

Search our weather history database for the weather conditions in past years. The results will help you decide how hot, cold, wet, or windy it might be!

Date:

Astronomy

Oct. 01, 2013 Rise Set
Actual Time 5:30 AM AEST 5:54 PM AEST
Civil Twilight 5:05 AM AEST 6:19 PM AEST
Nautical Twilight 4:36 AM AEST 6:48 PM AEST
Astronomical Twilight 4:07 AM AEST 7:18 PM AEST
Moon 2:53 AM AEST (10/1) 2:20 PM AEST (10/1)
Length of Visible Light 13h 13m
Length of Day
12h 24m
Waning Crescent, 16% of the Moon is Illuminated
Oct 1
Waning Crescent
Oct 5
New
Oct 12
First Quarter
Oct 19
Full
Oct 27
Last Quarter

Hourly Weather History & Observations

Time (AEST) Temp. Heat Index Dew Point Humidity Pressure Visibility Wind Dir Wind Speed Gust Speed Precip Events Conditions
12:00 AM 63 °F - 46 °F 43% 29.88 in - North 5.8 mph - -  
12:00 AM 62.6 °F - 46.4 °F 55% 29.86 in 6.2 mi North 5.8 mph - N/A   Unknown
12:30 AM 59.0 °F - 46.4 °F 63% 29.86 in 6.2 mi Calm Calm - N/A   Unknown
1:00 AM 56 °F - 46 °F 61% 29.86 in - NNE 2.3 mph - -  
1:00 AM 57.2 °F - 46.4 °F 67% 29.86 in 6.2 mi NNE 2.3 mph - N/A   Unknown
1:30 AM 53.6 °F - 46.4 °F 77% 29.83 in 6.2 mi Calm Calm - N/A   Unknown
2:00 AM 53.6 °F - 46.4 °F 77% 29.83 in 6.2 mi Calm Calm - N/A   Unknown
2:30 AM 53.6 °F - 46.4 °F 77% 29.80 in 6.2 mi Calm Calm - N/A   Unknown
3:00 AM 52 °F - 45 °F 69% 29.81 in - Calm Calm - -  
3:00 AM 51.8 °F - 44.6 °F 76% 29.80 in 6.2 mi Calm Calm - N/A   Unknown
3:30 AM 50.0 °F - 44.6 °F 82% 29.80 in 6.2 mi Calm Calm - N/A   Unknown
4:00 AM 56 °F - 43 °F 52% 29.80 in - North 3.5 mph - -  
4:00 AM 55.4 °F - 42.8 °F 63% 29.77 in 6.2 mi North 3.5 mph - N/A   Unknown
4:30 AM 53.6 °F - 44.6 °F 72% 29.77 in 6.2 mi NW 2.3 mph - N/A   Unknown
5:00 AM 53.6 °F - 44.6 °F 72% 29.77 in 6.2 mi Calm Calm - N/A   Unknown
5:30 AM 53.6 °F - 44.6 °F 72% 29.77 in 6.2 mi NNW 3.5 mph - N/A   Unknown
6:00 AM 54 °F - 47 °F 71% 29.78 in 16 mi North 1.2 mph - -   Scattered Clouds
6:00 AM 55.4 °F - 48.2 °F 77% 29.77 in 6.2 mi North 1.2 mph - N/A   Mostly Cloudy
6:30 AM 59.0 °F - 50.0 °F 72% 29.77 in 6.2 mi WNW 5.8 mph - N/A   Mostly Cloudy
7:00 AM 61 °F - 47 °F 49% 29.79 in - NW 5.8 mph - -  
7:00 AM 60.8 °F - 46.4 °F 59% 29.77 in - NW 5.8 mph - N/A   Clear
7:30 AM 62.6 °F - 46.4 °F 55% 29.77 in - North 5.8 mph - N/A   Clear
8:00 AM 64.4 °F - 46.4 °F 52% 29.77 in - NW 4.6 mph - N/A   Clear
8:30 AM 66.2 °F - 48.2 °F 52% 29.74 in - NNW 3.5 mph - N/A   Clear
9:00 AM 70 °F - 47 °F 32% 29.75 in 16 mi NW 5.8 mph - -   Partly Cloudy
9:00 AM 69.8 °F - 46.4 °F 43% 29.74 in - NW 5.8 mph - N/A   Clear
9:30 AM 71.6 °F - 50.0 °F 46% 29.71 in - North 4.6 mph - N/A   Clear
10:00 AM 74 °F - 52 °F 35% 29.72 in - North 4.6 mph - -  
10:00 AM 73.4 °F - 51.8 °F 47% 29.71 in - North 4.6 mph - N/A   Clear
10:30 AM 77.0 °F - 55.4 °F 47% 29.68 in - NW 4.6 mph - N/A   Clear
11:00 AM 80.6 °F 80.8 °F 57.2 °F 45% 29.68 in - NNE 5.8 mph - N/A   Clear
11:30 AM 84.2 °F 83.5 °F 57.2 °F 40% 29.65 in - North 6.9 mph - N/A   Clear
12:00 PM 86 °F - 55 °F 24% 29.66 in 19 mi NW 8.1 mph - -   Haze
12:00 PM 86.0 °F 84.5 °F 55.4 °F 35% 29.65 in - NW 8.1 mph - N/A   Clear
12:09 PM 89.6 °F - 48.2 °F 24% 29.65 in - NW 24.2 mph - N/A   Clear
12:12 PM 89.6 °F - 48.2 °F 24% 29.65 in 6.2 mi NNW 23.0 mph 34.5 mph N/A   Scattered Clouds
12:30 PM 91.4 °F - 48.2 °F 23% 29.62 in - NW 21.9 mph - N/A   Clear
12:50 PM 91.4 °F - 46.4 °F 21% 29.62 in - NW 26.5 mph 47.2 mph N/A   Clear
1:00 PM 91 °F - 47 °F 13% 29.64 in - NW 28.8 mph - -  
1:00 PM 91.4 °F - 46.4 °F 21% 29.62 in - NW 28.8 mph 47.2 mph N/A   Clear
1:30 PM 91.4 °F - 46.4 °F 21% 29.62 in 6.2 mi NW 24.2 mph - N/A   Mostly Cloudy
1:40 PM 89.6 °F - 46.4 °F 22% 29.62 in 6.2 mi NW 25.3 mph 44.9 mph N/A   Mostly Cloudy
1:45 PM 78.8 °F - 59.0 °F 51% 29.65 in 3.7 mi NW 29.9 mph 54.1 mph N/A Rain Rain Showers
1:55 PM 73.4 °F - 60.8 °F 65% 29.68 in 6.2 mi West 29.9 mph 46.0 mph N/A   Mostly Cloudy
2:00 PM 75.2 °F - 62.6 °F 65% 29.68 in - West 18.4 mph - N/A   Clear
2:27 PM 77.0 °F - 59.0 °F 54% 29.68 in 6.2 mi WNW 19.6 mph 32.2 mph N/A   Mostly Cloudy
2:54 PM 75.2 °F - 57.2 °F 53% 29.74 in 6.2 mi WNW 25.3 mph 48.3 mph N/A Rain Light Rain Showers
3:00 PM 74 °F - 58 °F 46% 29.74 in 16 mi WNW 33.4 mph - - Rain Light Rain Showers
3:00 PM 73.4 °F - 57.2 °F 57% 29.74 in 6.2 mi WNW 33.4 mph 48.3 mph N/A Rain Light Rain Showers
3:30 PM 68.0 °F - 62.6 °F 83% 29.74 in 6.2 mi WNW 17.3 mph - N/A Rain Light Rain Showers
4:00 PM 68 °F - 63 °F 80% 29.77 in - NW 11.5 mph - -  
4:00 PM 68.0 °F - 62.6 °F 83% 29.74 in - NW 11.5 mph - N/A   Clear
4:30 PM 69.8 °F - 60.8 °F 73% 29.80 in 6.2 mi NW 16.1 mph - N/A   Mostly Cloudy
5:00 PM 69.8 °F - 59.0 °F 68% 29.77 in 6.2 mi NNW 15.0 mph - N/A   Mostly Cloudy
5:30 PM 71.6 °F - 55.4 °F 57% 29.77 in - NNW 17.3 mph - N/A   Clear
6:00 PM 71 °F - 53 °F 42% 29.78 in - NNW 15.0 mph - -  
6:00 PM 71.6 °F - 53.6 °F 53% 29.77 in - NNW 15.0 mph - N/A   Clear
6:30 PM 69.8 °F - 53.6 °F 56% 29.80 in - NW 18.4 mph - N/A   Clear
7:00 PM 70 °F - 53 °F 45% 29.83 in - NW 17.3 mph - -  
7:00 PM 69.8 °F - 53.6 °F 56% 29.83 in - NW 17.3 mph - N/A   Clear
7:30 PM 69.8 °F - 53.6 °F 56% 29.83 in - NW 16.1 mph - N/A   Clear
8:00 PM 69.8 °F - 53.6 °F 56% 29.86 in - WNW 17.3 mph - N/A   Clear
8:30 PM 69.8 °F - 53.6 °F 56% 29.86 in - West 13.8 mph - N/A   Clear
9:00 PM 69 °F - 54 °F 48% 29.90 in - WNW 13.8 mph - -  
9:00 PM 68.0 °F - 53.6 °F 60% 29.89 in - WNW 13.8 mph - N/A   Unknown
9:30 PM 68.0 °F - 53.6 °F 60% 29.89 in 6.2 mi WNW 13.8 mph - N/A   Unknown
10:00 PM 68 °F - 55 °F 53% 29.92 in - West 11.5 mph - -  
10:00 PM 68.0 °F - 55.4 °F 64% 29.92 in 6.2 mi West 11.5 mph - N/A   Unknown
10:30 PM 68.0 °F - 55.4 °F 64% 29.92 in 6.2 mi West 11.5 mph - N/A   Unknown
11:00 PM 66.2 °F - 57.2 °F 73% 29.95 in 6.2 mi West 9.2 mph - N/A   Scattered Clouds
11:30 PM 64.4 °F - 51.8 °F 64% 29.95 in 6.2 mi SW 9.2 mph - N/A   Unknown